Index of /20260502/WXO-DD/model_caps/3km/00/038
Name Last modified Size Description
Parent Directory -
20260502T00Z_MSC_CAPS_AbsoluteVorticity_IsbL-0250_RLatLon0.03_PT038H.grib2 2026-05-02 06:19 1.0M
20260502T00Z_MSC_CAPS_AbsoluteVorticity_IsbL-0500_RLatLon0.03_PT038H.grib2 2026-05-02 06:19 1.1M
20260502T00Z_MSC_CAPS_AbsoluteVorticity_IsbL-0700_RLatLon0.03_PT038H.grib2 2026-05-02 06:19 1.1M
20260502T00Z_MSC_CAPS_AbsoluteVorticity_IsbL-0850_RLatLon0.03_PT038H.grib2 2026-05-02 06:19 1.6M
20260502T00Z_MSC_CAPS_AbsoluteVorticity_IsbL-1000_RLatLon0.03_PT038H.grib2 2026-05-02 06:19 1.4M
20260502T00Z_MSC_CAPS_AirDensity_AGL-120m_RLatLon0.03_PT038H.grib2 2026-05-02 06:19 1.4M
20260502T00Z_MSC_CAPS_AirDensity_AGL-40m_RLatLon0.03_PT038H.grib2 2026-05-02 06:19 1.4M
20260502T00Z_MSC_CAPS_AirDensity_AGL-80m_RLatLon0.03_PT038H.grib2 2026-05-02 06:19 1.4M
20260502T00Z_MSC_CAPS_AirTemp_AGL-120m_RLatLon0.03_PT038H.grib2 2026-05-02 06:19 1.4M
20260502T00Z_MSC_CAPS_AirTemp_AGL-2m_RLatLon0.03_PT038H.grib2 2026-05-02 06:19 1.7M
20260502T00Z_MSC_CAPS_AirTemp_AGL-40m_RLatLon0.03_PT038H.grib2 2026-05-02 06:19 1.5M
20260502T00Z_MSC_CAPS_AirTemp_AGL-80m_RLatLon0.03_PT038H.grib2 2026-05-02 06:19 1.4M
20260502T00Z_MSC_CAPS_AirTemp_IsbL-0050_RLatLon0.03_PT038H.grib2 2026-05-02 06:19 692K
20260502T00Z_MSC_CAPS_AirTemp_IsbL-0100_RLatLon0.03_PT038H.grib2 2026-05-02 06:19 731K
20260502T00Z_MSC_CAPS_AirTemp_IsbL-0150_RLatLon0.03_PT038H.grib2 2026-05-02 06:19 747K
20260502T00Z_MSC_CAPS_AirTemp_IsbL-0175_RLatLon0.03_PT038H.grib2 2026-05-02 06:19 766K
20260502T00Z_MSC_CAPS_AirTemp_IsbL-0200_RLatLon0.03_PT038H.grib2 2026-05-02 06:19 786K
20260502T00Z_MSC_CAPS_AirTemp_IsbL-0225_RLatLon0.03_PT038H.grib2 2026-05-02 06:19 791K
20260502T00Z_MSC_CAPS_AirTemp_IsbL-0250_RLatLon0.03_PT038H.grib2 2026-05-02 06:19 1.0M
20260502T00Z_MSC_CAPS_AirTemp_IsbL-0275_RLatLon0.03_PT038H.grib2 2026-05-02 06:19 1.0M
20260502T00Z_MSC_CAPS_AirTemp_IsbL-0300_RLatLon0.03_PT038H.grib2 2026-05-02 06:19 1.0M
20260502T00Z_MSC_CAPS_AirTemp_IsbL-0350_RLatLon0.03_PT038H.grib2 2026-05-02 06:19 745K
20260502T00Z_MSC_CAPS_AirTemp_IsbL-0400_RLatLon0.03_PT038H.grib2 2026-05-02 06:19 750K
20260502T00Z_MSC_CAPS_AirTemp_IsbL-0450_RLatLon0.03_PT038H.grib2 2026-05-02 06:19 772K
20260502T00Z_MSC_CAPS_AirTemp_IsbL-0500_RLatLon0.03_PT038H.grib2 2026-05-02 06:19 791K
20260502T00Z_MSC_CAPS_AirTemp_IsbL-0550_RLatLon0.03_PT038H.grib2 2026-05-02 06:19 957K
20260502T00Z_MSC_CAPS_AirTemp_IsbL-0600_RLatLon0.03_PT038H.grib2 2026-05-02 06:19 1.0M
20260502T00Z_MSC_CAPS_AirTemp_IsbL-0650_RLatLon0.03_PT038H.grib2 2026-05-02 06:19 1.0M
20260502T00Z_MSC_CAPS_AirTemp_IsbL-0700_RLatLon0.03_PT038H.grib2 2026-05-02 06:19 1.0M
20260502T00Z_MSC_CAPS_AirTemp_IsbL-0750_RLatLon0.03_PT038H.grib2 2026-05-02 06:19 1.0M
20260502T00Z_MSC_CAPS_AirTemp_IsbL-0800_RLatLon0.03_PT038H.grib2 2026-05-02 06:19 1.1M
20260502T00Z_MSC_CAPS_AirTemp_IsbL-0850_RLatLon0.03_PT038H.grib2 2026-05-02 06:19 1.1M
20260502T00Z_MSC_CAPS_AirTemp_IsbL-0875_RLatLon0.03_PT038H.grib2 2026-05-02 06:19 1.1M
20260502T00Z_MSC_CAPS_AirTemp_IsbL-0900_RLatLon0.03_PT038H.grib2 2026-05-02 06:19 1.1M
20260502T00Z_MSC_CAPS_AirTemp_IsbL-0925_RLatLon0.03_PT038H.grib2 2026-05-02 06:19 1.1M
20260502T00Z_MSC_CAPS_AirTemp_IsbL-0950_RLatLon0.03_PT038H.grib2 2026-05-02 06:19 1.1M
20260502T00Z_MSC_CAPS_AirTemp_IsbL-0970_RLatLon0.03_PT038H.grib2 2026-05-02 06:19 1.0M
20260502T00Z_MSC_CAPS_AirTemp_IsbL-0985_RLatLon0.03_PT038H.grib2 2026-05-02 06:19 1.0M
20260502T00Z_MSC_CAPS_AirTemp_IsbL-1000_RLatLon0.03_PT038H.grib2 2026-05-02 06:19 1.0M
20260502T00Z_MSC_CAPS_AirTemp_IsbL-1015_RLatLon0.03_PT038H.grib2 2026-05-02 06:19 1.1M
20260502T00Z_MSC_CAPS_Albedo_Sfc_RLatLon0.03_PT038H.grib2 2026-05-02 06:19 2.7M
20260502T00Z_MSC_CAPS_CAPE_Sfc_RLatLon0.03_PT038H.grib2 2026-05-02 06:19 174K
20260502T00Z_MSC_CAPS_CloudWater_EAtm_RLatLon0.03_PT038H.grib2 2026-05-02 06:19 1.5M
20260502T00Z_MSC_CAPS_ConvectivePrecip-Accum_Sfc_RLatLon0.03_PT038H.grib2 2026-05-02 06:19 4.3M
20260502T00Z_MSC_CAPS_DewPointDepression_AGL-120m_RLatLon0.03_PT038H.grib2 2026-05-02 06:19 2.0M
20260502T00Z_MSC_CAPS_DewPointDepression_AGL-2m_RLatLon0.03_PT038H.grib2 2026-05-02 06:19 2.1M
20260502T00Z_MSC_CAPS_DewPointDepression_AGL-40m_RLatLon0.03_PT038H.grib2 2026-05-02 06:19 2.1M
20260502T00Z_MSC_CAPS_DewPointDepression_AGL-80m_RLatLon0.03_PT038H.grib2 2026-05-02 06:19 2.0M
20260502T00Z_MSC_CAPS_DewPointDepression_IsbL-0050_RLatLon0.03_PT038H.grib2 2026-05-02 06:19 15K
20260502T00Z_MSC_CAPS_DewPointDepression_IsbL-0100_RLatLon0.03_PT038H.grib2 2026-05-02 06:19 98K
20260502T00Z_MSC_CAPS_DewPointDepression_IsbL-0150_RLatLon0.03_PT038H.grib2 2026-05-02 06:19 89K
20260502T00Z_MSC_CAPS_DewPointDepression_IsbL-0175_RLatLon0.03_PT038H.grib2 2026-05-02 06:19 233K
20260502T00Z_MSC_CAPS_DewPointDepression_IsbL-0200_RLatLon0.03_PT038H.grib2 2026-05-02 06:19 385K
20260502T00Z_MSC_CAPS_DewPointDepression_IsbL-0225_RLatLon0.03_PT038H.grib2 2026-05-02 06:19 653K
20260502T00Z_MSC_CAPS_DewPointDepression_IsbL-0250_RLatLon0.03_PT038H.grib2 2026-05-02 06:19 851K
20260502T00Z_MSC_CAPS_DewPointDepression_IsbL-0275_RLatLon0.03_PT038H.grib2 2026-05-02 06:19 1.0M
20260502T00Z_MSC_CAPS_DewPointDepression_IsbL-0300_RLatLon0.03_PT038H.grib2 2026-05-02 06:19 1.0M
20260502T00Z_MSC_CAPS_DewPointDepression_IsbL-0350_RLatLon0.03_PT038H.grib2 2026-05-02 06:19 1.1M
20260502T00Z_MSC_CAPS_DewPointDepression_IsbL-0400_RLatLon0.03_PT038H.grib2 2026-05-02 06:19 1.1M
20260502T00Z_MSC_CAPS_DewPointDepression_IsbL-0450_RLatLon0.03_PT038H.grib2 2026-05-02 06:19 1.1M
20260502T00Z_MSC_CAPS_DewPointDepression_IsbL-0500_RLatLon0.03_PT038H.grib2 2026-05-02 06:19 1.2M
20260502T00Z_MSC_CAPS_DewPointDepression_IsbL-0550_RLatLon0.03_PT038H.grib2 2026-05-02 06:19 1.2M
20260502T00Z_MSC_CAPS_DewPointDepression_IsbL-0600_RLatLon0.03_PT038H.grib2 2026-05-02 06:19 1.3M
20260502T00Z_MSC_CAPS_DewPointDepression_IsbL-0650_RLatLon0.03_PT038H.grib2 2026-05-02 06:19 1.3M
20260502T00Z_MSC_CAPS_DewPointDepression_IsbL-0700_RLatLon0.03_PT038H.grib2 2026-05-02 06:19 1.3M
20260502T00Z_MSC_CAPS_DewPointDepression_IsbL-0750_RLatLon0.03_PT038H.grib2 2026-05-02 06:19 1.3M
20260502T00Z_MSC_CAPS_DewPointDepression_IsbL-0800_RLatLon0.03_PT038H.grib2 2026-05-02 06:19 1.4M
20260502T00Z_MSC_CAPS_DewPointDepression_IsbL-0850_RLatLon0.03_PT038H.grib2 2026-05-02 06:19 1.4M
20260502T00Z_MSC_CAPS_DewPointDepression_IsbL-0875_RLatLon0.03_PT038H.grib2 2026-05-02 06:19 1.4M
20260502T00Z_MSC_CAPS_DewPointDepression_IsbL-0900_RLatLon0.03_PT038H.grib2 2026-05-02 06:19 1.4M
20260502T00Z_MSC_CAPS_DewPointDepression_IsbL-0925_RLatLon0.03_PT038H.grib2 2026-05-02 06:19 1.4M
20260502T00Z_MSC_CAPS_DewPointDepression_IsbL-0950_RLatLon0.03_PT038H.grib2 2026-05-02 06:19 1.3M
20260502T00Z_MSC_CAPS_DewPointDepression_IsbL-0970_RLatLon0.03_PT038H.grib2 2026-05-02 06:19 1.3M
20260502T00Z_MSC_CAPS_DewPointDepression_IsbL-0985_RLatLon0.03_PT038H.grib2 2026-05-02 06:19 1.3M
20260502T00Z_MSC_CAPS_DewPointDepression_IsbL-1000_RLatLon0.03_PT038H.grib2 2026-05-02 06:19 1.3M
20260502T00Z_MSC_CAPS_DewPointDepression_IsbL-1015_RLatLon0.03_PT038H.grib2 2026-05-02 06:19 1.3M
20260502T00Z_MSC_CAPS_DewPoint_AGL-120m_RLatLon0.03_PT038H.grib2 2026-05-02 06:19 3.6M
20260502T00Z_MSC_CAPS_DewPoint_AGL-2m_RLatLon0.03_PT038H.grib2 2026-05-02 06:19 1.7M
20260502T00Z_MSC_CAPS_DewPoint_AGL-40m_RLatLon0.03_PT038H.grib2 2026-05-02 06:19 3.7M
20260502T00Z_MSC_CAPS_DewPoint_AGL-80m_RLatLon0.03_PT038H.grib2 2026-05-02 06:19 3.6M
20260502T00Z_MSC_CAPS_DownwardLongwaveRadiationFlux-Accum_Sfc_RLatLon0.03_PT038H.grib2 2026-05-02 06:19 2.1M
20260502T00Z_MSC_CAPS_DownwardShortwaveRadiationFlux-Accum_NTAtm_RLatLon0.03_PT038H.grib2 2026-05-02 06:19 494K
20260502T00Z_MSC_CAPS_DownwardShortwaveRadiationFlux-Accum_Sfc_RLatLon0.03_PT038H.grib2 2026-05-02 06:19 2.8M
20260502T00Z_MSC_CAPS_FreezingRain-Accum_Sfc_RLatLon0.03_PT038H.grib2 2026-05-02 06:19 1.1M
20260502T00Z_MSC_CAPS_GeopotentialHeight_IsbL-0050_RLatLon0.03_PT038H.grib2 2026-05-02 06:19 637K
20260502T00Z_MSC_CAPS_GeopotentialHeight_IsbL-0100_RLatLon0.03_PT038H.grib2 2026-05-02 06:19 767K
20260502T00Z_MSC_CAPS_GeopotentialHeight_IsbL-0150_RLatLon0.03_PT038H.grib2 2026-05-02 06:19 724K
20260502T00Z_MSC_CAPS_GeopotentialHeight_IsbL-0175_RLatLon0.03_PT038H.grib2 2026-05-02 06:19 733K
20260502T00Z_MSC_CAPS_GeopotentialHeight_IsbL-0200_RLatLon0.03_PT038H.grib2 2026-05-02 06:19 746K
20260502T00Z_MSC_CAPS_GeopotentialHeight_IsbL-0225_RLatLon0.03_PT038H.grib2 2026-05-02 06:19 755K
20260502T00Z_MSC_CAPS_GeopotentialHeight_IsbL-0250_RLatLon0.03_PT038H.grib2 2026-05-02 06:19 765K
20260502T00Z_MSC_CAPS_GeopotentialHeight_IsbL-0275_RLatLon0.03_PT038H.grib2 2026-05-02 06:19 776K
20260502T00Z_MSC_CAPS_GeopotentialHeight_IsbL-0300_RLatLon0.03_PT038H.grib2 2026-05-02 06:19 780K
20260502T00Z_MSC_CAPS_GeopotentialHeight_IsbL-0350_RLatLon0.03_PT038H.grib2 2026-05-02 06:19 780K
20260502T00Z_MSC_CAPS_GeopotentialHeight_IsbL-0400_RLatLon0.03_PT038H.grib2 2026-05-02 06:19 773K
20260502T00Z_MSC_CAPS_GeopotentialHeight_IsbL-0450_RLatLon0.03_PT038H.grib2 2026-05-02 06:19 764K
20260502T00Z_MSC_CAPS_GeopotentialHeight_IsbL-0500_RLatLon0.03_PT038H.grib2 2026-05-02 06:19 756K
20260502T00Z_MSC_CAPS_GeopotentialHeight_IsbL-0550_RLatLon0.03_PT038H.grib2 2026-05-02 06:19 748K
20260502T00Z_MSC_CAPS_GeopotentialHeight_IsbL-0600_RLatLon0.03_PT038H.grib2 2026-05-02 06:19 738K
20260502T00Z_MSC_CAPS_GeopotentialHeight_IsbL-0650_RLatLon0.03_PT038H.grib2 2026-05-02 06:19 629K
20260502T00Z_MSC_CAPS_GeopotentialHeight_IsbL-0700_RLatLon0.03_PT038H.grib2 2026-05-02 06:19 632K
20260502T00Z_MSC_CAPS_GeopotentialHeight_IsbL-0750_RLatLon0.03_PT038H.grib2 2026-05-02 06:19 636K
20260502T00Z_MSC_CAPS_GeopotentialHeight_IsbL-0800_RLatLon0.03_PT038H.grib2 2026-05-02 06:19 822K
20260502T00Z_MSC_CAPS_GeopotentialHeight_IsbL-0850_RLatLon0.03_PT038H.grib2 2026-05-02 06:19 830K
20260502T00Z_MSC_CAPS_GeopotentialHeight_IsbL-0875_RLatLon0.03_PT038H.grib2 2026-05-02 06:19 836K
20260502T00Z_MSC_CAPS_GeopotentialHeight_IsbL-0900_RLatLon0.03_PT038H.grib2 2026-05-02 06:19 841K
20260502T00Z_MSC_CAPS_GeopotentialHeight_IsbL-0925_RLatLon0.03_PT038H.grib2 2026-05-02 06:19 837K
20260502T00Z_MSC_CAPS_GeopotentialHeight_IsbL-0950_RLatLon0.03_PT038H.grib2 2026-05-02 06:19 859K
20260502T00Z_MSC_CAPS_GeopotentialHeight_IsbL-0970_RLatLon0.03_PT038H.grib2 2026-05-02 06:19 870K
20260502T00Z_MSC_CAPS_GeopotentialHeight_IsbL-0985_RLatLon0.03_PT038H.grib2 2026-05-02 06:19 880K
20260502T00Z_MSC_CAPS_GeopotentialHeight_IsbL-1000_RLatLon0.03_PT038H.grib2 2026-05-02 06:19 887K
20260502T00Z_MSC_CAPS_GeopotentialHeight_IsbL-1015_RLatLon0.03_PT038H.grib2 2026-05-02 06:19 881K
20260502T00Z_MSC_CAPS_GeopotentialHeight_Sfc_RLatLon0.03_PT038H.grib2 2026-05-02 06:19 1.0M
20260502T00Z_MSC_CAPS_IcePellets-Accum_Sfc_RLatLon0.03_PT038H.grib2 2026-05-02 06:19 87K
20260502T00Z_MSC_CAPS_LatentHeatNetFlux_Sfc_RLatLon0.03_PT038H.grib2 2026-05-02 06:19 1.8M
20260502T00Z_MSC_CAPS_LiftedIndex-MU-VT_IsbL-0500_RLatLon0.03_PT038H.grib2 2026-05-02 06:19 3.3M
20260502T00Z_MSC_CAPS_MixedLayerThickness_Sfc_RLatLon0.03_PT038H.nc 2026-05-02 06:12 16M
20260502T00Z_MSC_CAPS_NetLongwaveRadiationFlux-Accum_Sfc_RLatLon0.03_PT038H.grib2 2026-05-02 06:19 2.8M
20260502T00Z_MSC_CAPS_NetShortwaveRadiationFlux-Accum_Sfc_RLatLon0.03_PT038H.grib2 2026-05-02 06:19 2.7M
20260502T00Z_MSC_CAPS_PlanetaryBoundaryLayerHeight_Sfc_RLatLon0.03_PT038H.grib2 2026-05-02 06:19 2.9M
20260502T00Z_MSC_CAPS_Precip-Accum_Sfc_RLatLon0.03_PT038H.grib2 2026-05-02 06:19 5.3M
20260502T00Z_MSC_CAPS_PrecipRate_Sfc_RLatLon0.03_PT038H.grib2 2026-05-02 06:19 537K
20260502T00Z_MSC_CAPS_PrecipType-Instant_Sfc_RLatLon0.03_PT038H.grib2 2026-05-02 06:19 1.8M
20260502T00Z_MSC_CAPS_Pressure_MSL_RLatLon0.03_PT038H.grib2 2026-05-02 06:19 922K
20260502T00Z_MSC_CAPS_Pressure_Sfc_RLatLon0.03_PT038H.grib2 2026-05-02 06:19 1.2M
20260502T00Z_MSC_CAPS_RadiativeTemp_Sfc_RLatLon0.03_PT038H.grib2 2026-05-02 06:19 2.1M
20260502T00Z_MSC_CAPS_Rain-Accum_Sfc_RLatLon0.03_PT038H.grib2 2026-05-02 06:19 2.8M
20260502T00Z_MSC_CAPS_RelativeHumidity_AGL-120m_RLatLon0.03_PT038H.grib2 2026-05-02 06:19 2.8M
20260502T00Z_MSC_CAPS_RelativeHumidity_AGL-2m_RLatLon0.03_PT038H.grib2 2026-05-02 06:19 2.9M
20260502T00Z_MSC_CAPS_RelativeHumidity_AGL-40m_RLatLon0.03_PT038H.grib2 2026-05-02 06:19 2.8M
20260502T00Z_MSC_CAPS_RelativeHumidity_AGL-80m_RLatLon0.03_PT038H.grib2 2026-05-02 06:19 2.8M
20260502T00Z_MSC_CAPS_RelativeHumidity_IsbL-0050_RLatLon0.03_PT038H.grib2 2026-05-02 06:19 736K
20260502T00Z_MSC_CAPS_RelativeHumidity_IsbL-0100_RLatLon0.03_PT038H.grib2 2026-05-02 06:19 875K
20260502T00Z_MSC_CAPS_RelativeHumidity_IsbL-0150_RLatLon0.03_PT038H.grib2 2026-05-02 06:19 497K
20260502T00Z_MSC_CAPS_RelativeHumidity_IsbL-0175_RLatLon0.03_PT038H.grib2 2026-05-02 06:19 482K
20260502T00Z_MSC_CAPS_RelativeHumidity_IsbL-0200_RLatLon0.03_PT038H.grib2 2026-05-02 06:19 681K
20260502T00Z_MSC_CAPS_RelativeHumidity_IsbL-0225_RLatLon0.03_PT038H.grib2 2026-05-02 06:19 887K
20260502T00Z_MSC_CAPS_RelativeHumidity_IsbL-0250_RLatLon0.03_PT038H.grib2 2026-05-02 06:19 1.1M
20260502T00Z_MSC_CAPS_RelativeHumidity_IsbL-0275_RLatLon0.03_PT038H.grib2 2026-05-02 06:19 1.4M
20260502T00Z_MSC_CAPS_RelativeHumidity_IsbL-0300_RLatLon0.03_PT038H.grib2 2026-05-02 06:19 1.5M
20260502T00Z_MSC_CAPS_RelativeHumidity_IsbL-0350_RLatLon0.03_PT038H.grib2 2026-05-02 06:19 1.8M
20260502T00Z_MSC_CAPS_RelativeHumidity_IsbL-0400_RLatLon0.03_PT038H.grib2 2026-05-02 06:19 1.9M
20260502T00Z_MSC_CAPS_RelativeHumidity_IsbL-0450_RLatLon0.03_PT038H.grib2 2026-05-02 06:19 2.0M
20260502T00Z_MSC_CAPS_RelativeHumidity_IsbL-0500_RLatLon0.03_PT038H.grib2 2026-05-02 06:19 2.0M
20260502T00Z_MSC_CAPS_RelativeHumidity_IsbL-0550_RLatLon0.03_PT038H.grib2 2026-05-02 06:19 2.2M
20260502T00Z_MSC_CAPS_RelativeHumidity_IsbL-0600_RLatLon0.03_PT038H.grib2 2026-05-02 06:19 2.2M
20260502T00Z_MSC_CAPS_RelativeHumidity_IsbL-0650_RLatLon0.03_PT038H.grib2 2026-05-02 06:19 2.3M
20260502T00Z_MSC_CAPS_RelativeHumidity_IsbL-0700_RLatLon0.03_PT038H.grib2 2026-05-02 06:19 2.4M
20260502T00Z_MSC_CAPS_RelativeHumidity_IsbL-0750_RLatLon0.03_PT038H.grib2 2026-05-02 06:19 2.4M
20260502T00Z_MSC_CAPS_RelativeHumidity_IsbL-0800_RLatLon0.03_PT038H.grib2 2026-05-02 06:19 2.4M
20260502T00Z_MSC_CAPS_RelativeHumidity_IsbL-0850_RLatLon0.03_PT038H.grib2 2026-05-02 06:19 2.5M
20260502T00Z_MSC_CAPS_RelativeHumidity_IsbL-0875_RLatLon0.03_PT038H.grib2 2026-05-02 06:19 2.6M
20260502T00Z_MSC_CAPS_RelativeHumidity_IsbL-0900_RLatLon0.03_PT038H.grib2 2026-05-02 06:19 2.6M
20260502T00Z_MSC_CAPS_RelativeHumidity_IsbL-0925_RLatLon0.03_PT038H.grib2 2026-05-02 06:19 2.6M
20260502T00Z_MSC_CAPS_RelativeHumidity_IsbL-0950_RLatLon0.03_PT038H.grib2 2026-05-02 06:19 2.7M
20260502T00Z_MSC_CAPS_RelativeHumidity_IsbL-0970_RLatLon0.03_PT038H.grib2 2026-05-02 06:19 2.8M
20260502T00Z_MSC_CAPS_RelativeHumidity_IsbL-0985_RLatLon0.03_PT038H.grib2 2026-05-02 06:19 2.8M
20260502T00Z_MSC_CAPS_RelativeHumidity_IsbL-1000_RLatLon0.03_PT038H.grib2 2026-05-02 06:19 2.8M
20260502T00Z_MSC_CAPS_RelativeHumidity_IsbL-1015_RLatLon0.03_PT038H.grib2 2026-05-02 06:19 2.9M
20260502T00Z_MSC_CAPS_Runoff-Accum_Sfc_RLatLon0.03_PT038H.grib2 2026-05-02 06:19 321K
20260502T00Z_MSC_CAPS_SeaIceAreaFraction_Sfc_RLatLon0.03_PT038H.nc 2026-05-02 06:12 15M
20260502T00Z_MSC_CAPS_SeaIceCompressiveStrength_Sfc_RLatLon0.03_PT038H.nc 2026-05-02 06:12 15M
20260502T00Z_MSC_CAPS_SeaIceDivergence_Sfc_RLatLon0.03_PT038H.nc 2026-05-02 06:12 15M
20260502T00Z_MSC_CAPS_SeaIceInternalPressure_Sfc_RLatLon0.03_PT038H.nc 2026-05-02 06:12 15M
20260502T00Z_MSC_CAPS_SeaIceShear_Sfc_RLatLon0.03_PT038H.nc 2026-05-02 06:12 14M
20260502T00Z_MSC_CAPS_SeaIceSnowTemp_Sfc_RLatLon0.03_PT038H.nc 2026-05-02 06:12 14M
20260502T00Z_MSC_CAPS_SeaIceSnowVolume_Sfc_RLatLon0.03_PT038H.nc 2026-05-02 06:12 15M
20260502T00Z_MSC_CAPS_SeaIceVelocityX_Sfc_RLatLon0.03_PT038H.nc 2026-05-02 06:12 15M
20260502T00Z_MSC_CAPS_SeaIceVelocityY_Sfc_RLatLon0.03_PT038H.nc 2026-05-02 06:12 15M
20260502T00Z_MSC_CAPS_SeaIceVolume_Sfc_RLatLon0.03_PT038H.nc 2026-05-02 06:12 15M
20260502T00Z_MSC_CAPS_SeaSurfaceHeight_Sfc_RLatLon0.03_PT038H.nc 2026-05-02 06:12 16M
20260502T00Z_MSC_CAPS_SeaWaterSalinity_DBS-0.5m_RLatLon0.03_PT038H.nc 2026-05-02 06:12 16M
20260502T00Z_MSC_CAPS_SeaWaterSalinity_DBS-all_RLatLon0.03_PT038H.nc 2026-05-02 06:12 107M
20260502T00Z_MSC_CAPS_SeaWaterTemp_DBS-0.5m_RLatLon0.03_PT038H.nc 2026-05-02 06:12 14M
20260502T00Z_MSC_CAPS_SeaWaterTemp_DBS-all_RLatLon0.03_PT038H.nc 2026-05-02 06:12 88M
20260502T00Z_MSC_CAPS_SeaWaterVelocityX_DBS-0.5m_RLatLon0.03_PT038H.nc 2026-05-02 06:12 18M
20260502T00Z_MSC_CAPS_SeaWaterVelocityX_DBS-all_RLatLon0.03_PT038H.nc 2026-05-02 06:12 210M
20260502T00Z_MSC_CAPS_SeaWaterVelocityY_DBS-0.5m_RLatLon0.03_PT038H.nc 2026-05-02 06:12 18M
20260502T00Z_MSC_CAPS_SeaWaterVelocityY_DBS-all_RLatLon0.03_PT038H.nc 2026-05-02 06:12 214M
20260502T00Z_MSC_CAPS_SensibleHeatNetFlux_Sfc_RLatLon0.03_PT038H.grib2 2026-05-02 06:19 2.1M
20260502T00Z_MSC_CAPS_ShowalterIndex_IsbL-0500_RLatLon0.03_PT038H.grib2 2026-05-02 06:19 4.3M
20260502T00Z_MSC_CAPS_Snow-Accum_Sfc_RLatLon0.03_PT038H.grib2 2026-05-02 06:19 4.2M
20260502T00Z_MSC_CAPS_SnowDensity_Sfc_RLatLon0.03_PT038H.grib2 2026-05-02 06:19 1.3M
20260502T00Z_MSC_CAPS_SnowDepthWaterEquivalent_Sfc_RLatLon0.03_PT038H.grib2 2026-05-02 06:19 669K
20260502T00Z_MSC_CAPS_SnowDepth_Sfc_RLatLon0.03_PT038H.grib2 2026-05-02 06:19 1.2M
20260502T00Z_MSC_CAPS_SoilTemp_DBS-0to10cm_RLatLon0.03_PT038H.grib2 2026-05-02 06:19 1.6M
20260502T00Z_MSC_CAPS_SoilTemp_Sfc_RLatLon0.03_PT038H.grib2 2026-05-02 06:19 1.8M
20260502T00Z_MSC_CAPS_SoilVolumetricIceContent_Sfc_RLatLon0.03_PT038H.grib2 2026-05-02 06:19 1.4M
20260502T00Z_MSC_CAPS_SoilVolumetricWaterContent_DBS-0to10cm_RLatLon0.03_PT038H.grib2 2026-05-02 06:19 1.3M
20260502T00Z_MSC_CAPS_SoilVolumetricWaterContent_DBS-0to1cm_RLatLon0.03_PT038H.grib2 2026-05-02 06:19 1.7M
20260502T00Z_MSC_CAPS_SpecificHumidity_AGL-120m_RLatLon0.03_PT038H.grib2 2026-05-02 06:19 1.8M
20260502T00Z_MSC_CAPS_SpecificHumidity_AGL-2m_RLatLon0.03_PT038H.grib2 2026-05-02 06:19 2.1M
20260502T00Z_MSC_CAPS_SpecificHumidity_AGL-40m_RLatLon0.03_PT038H.grib2 2026-05-02 06:19 1.8M
20260502T00Z_MSC_CAPS_SpecificHumidity_AGL-80m_RLatLon0.03_PT038H.grib2 2026-05-02 06:19 1.8M
20260502T00Z_MSC_CAPS_SpecificHumidity_IsbL-0050_RLatLon0.03_PT038H.grib2 2026-05-02 06:19 918K
20260502T00Z_MSC_CAPS_SpecificHumidity_IsbL-0100_RLatLon0.03_PT038H.grib2 2026-05-02 06:19 1.0M
20260502T00Z_MSC_CAPS_SpecificHumidity_IsbL-0150_RLatLon0.03_PT038H.grib2 2026-05-02 06:19 773K
20260502T00Z_MSC_CAPS_SpecificHumidity_IsbL-0175_RLatLon0.03_PT038H.grib2 2026-05-02 06:19 1.0M
20260502T00Z_MSC_CAPS_SpecificHumidity_IsbL-0200_RLatLon0.03_PT038H.grib2 2026-05-02 06:19 1.0M
20260502T00Z_MSC_CAPS_SpecificHumidity_IsbL-0225_RLatLon0.03_PT038H.grib2 2026-05-02 06:19 1.1M
20260502T00Z_MSC_CAPS_SpecificHumidity_IsbL-0250_RLatLon0.03_PT038H.grib2 2026-05-02 06:19 1.1M
20260502T00Z_MSC_CAPS_SpecificHumidity_IsbL-0275_RLatLon0.03_PT038H.grib2 2026-05-02 06:19 1.1M
20260502T00Z_MSC_CAPS_SpecificHumidity_IsbL-0300_RLatLon0.03_PT038H.grib2 2026-05-02 06:19 1.0M
20260502T00Z_MSC_CAPS_SpecificHumidity_IsbL-0350_RLatLon0.03_PT038H.grib2 2026-05-02 06:19 1.2M
20260502T00Z_MSC_CAPS_SpecificHumidity_IsbL-0400_RLatLon0.03_PT038H.grib2 2026-05-02 06:19 1.1M
20260502T00Z_MSC_CAPS_SpecificHumidity_IsbL-0450_RLatLon0.03_PT038H.grib2 2026-05-02 06:19 1.1M
20260502T00Z_MSC_CAPS_SpecificHumidity_IsbL-0500_RLatLon0.03_PT038H.grib2 2026-05-02 06:19 1.3M
20260502T00Z_MSC_CAPS_SpecificHumidity_IsbL-0550_RLatLon0.03_PT038H.grib2 2026-05-02 06:19 1.2M
20260502T00Z_MSC_CAPS_SpecificHumidity_IsbL-0600_RLatLon0.03_PT038H.grib2 2026-05-02 06:19 1.4M
20260502T00Z_MSC_CAPS_SpecificHumidity_IsbL-0650_RLatLon0.03_PT038H.grib2 2026-05-02 06:19 1.5M
20260502T00Z_MSC_CAPS_SpecificHumidity_IsbL-0700_RLatLon0.03_PT038H.grib2 2026-05-02 06:19 1.7M
20260502T00Z_MSC_CAPS_SpecificHumidity_IsbL-0750_RLatLon0.03_PT038H.grib2 2026-05-02 06:19 1.4M
20260502T00Z_MSC_CAPS_SpecificHumidity_IsbL-0800_RLatLon0.03_PT038H.grib2 2026-05-02 06:19 1.5M
20260502T00Z_MSC_CAPS_SpecificHumidity_IsbL-0850_RLatLon0.03_PT038H.grib2 2026-05-02 06:19 1.7M
20260502T00Z_MSC_CAPS_SpecificHumidity_IsbL-0875_RLatLon0.03_PT038H.grib2 2026-05-02 06:19 1.8M
20260502T00Z_MSC_CAPS_SpecificHumidity_IsbL-0900_RLatLon0.03_PT038H.grib2 2026-05-02 06:19 1.8M
20260502T00Z_MSC_CAPS_SpecificHumidity_IsbL-0925_RLatLon0.03_PT038H.grib2 2026-05-02 06:19 1.8M
20260502T00Z_MSC_CAPS_SpecificHumidity_IsbL-0950_RLatLon0.03_PT038H.grib2 2026-05-02 06:19 2.0M
20260502T00Z_MSC_CAPS_SpecificHumidity_IsbL-0970_RLatLon0.03_PT038H.grib2 2026-05-02 06:19 2.0M
20260502T00Z_MSC_CAPS_SpecificHumidity_IsbL-0985_RLatLon0.03_PT038H.grib2 2026-05-02 06:19 2.0M
20260502T00Z_MSC_CAPS_SpecificHumidity_IsbL-1000_RLatLon0.03_PT038H.grib2 2026-05-02 06:19 2.1M
20260502T00Z_MSC_CAPS_SpecificHumidity_IsbL-1015_RLatLon0.03_PT038H.grib2 2026-05-02 06:19 2.1M
20260502T00Z_MSC_CAPS_SpecificHumidity_Sfc_RLatLon0.03_PT038H.grib2 2026-05-02 06:19 2.0M
20260502T00Z_MSC_CAPS_StormRelativeHelicity_Sfc_RLatLon0.03_PT038H.grib2 2026-05-02 06:19 3.2M
20260502T00Z_MSC_CAPS_Thickness_IsbL-1000to0500_RLatLon0.03_PT038H.grib2 2026-05-02 06:19 475K
20260502T00Z_MSC_CAPS_TotalCloudCover_Sfc_RLatLon0.03_PT038H.grib2 2026-05-02 06:19 3.7M
20260502T00Z_MSC_CAPS_TurboclineDepth_Sfc_RLatLon0.03_PT038H.nc 2026-05-02 06:12 16M
20260502T00Z_MSC_CAPS_UpwardLongwaveRadiationFlux_NTAtm_RLatLon0.03_PT038H.grib2 2026-05-02 06:19 3.0M
20260502T00Z_MSC_CAPS_UpwardShortwaveRadiationFlux_NTAtm_RLatLon0.03_PT038H.grib2 2026-05-02 06:19 2.4M
20260502T00Z_MSC_CAPS_VerticalVelocity_IsbL-0250_RLatLon0.03_PT038H.grib2 2026-05-02 06:19 916K
20260502T00Z_MSC_CAPS_VerticalVelocity_IsbL-0500_RLatLon0.03_PT038H.grib2 2026-05-02 06:19 1.1M
20260502T00Z_MSC_CAPS_VerticalVelocity_IsbL-0700_RLatLon0.03_PT038H.grib2 2026-05-02 06:19 1.2M
20260502T00Z_MSC_CAPS_VerticalVelocity_IsbL-0850_RLatLon0.03_PT038H.grib2 2026-05-02 06:19 1.4M
20260502T00Z_MSC_CAPS_VerticalVelocity_IsbL-1000_RLatLon0.03_PT038H.grib2 2026-05-02 06:19 1.4M
20260502T00Z_MSC_CAPS_WindDir_AGL-10m_RLatLon0.03_PT038H.grib2 2026-05-02 06:19 2.3M
20260502T00Z_MSC_CAPS_WindDir_AGL-120m_RLatLon0.03_PT038H.grib2 2026-05-02 06:19 1.2M
20260502T00Z_MSC_CAPS_WindDir_AGL-40m_RLatLon0.03_PT038H.grib2 2026-05-02 06:19 1.3M
20260502T00Z_MSC_CAPS_WindDir_AGL-80m_RLatLon0.03_PT038H.grib2 2026-05-02 06:19 1.2M
20260502T00Z_MSC_CAPS_WindDir_IsbL-0050_RLatLon0.03_PT038H.grib2 2026-05-02 06:19 1.0M
20260502T00Z_MSC_CAPS_WindDir_IsbL-0100_RLatLon0.03_PT038H.grib2 2026-05-02 06:19 1.1M
20260502T00Z_MSC_CAPS_WindDir_IsbL-0150_RLatLon0.03_PT038H.grib2 2026-05-02 06:19 1.0M
20260502T00Z_MSC_CAPS_WindDir_IsbL-0175_RLatLon0.03_PT038H.grib2 2026-05-02 06:19 1.1M
20260502T00Z_MSC_CAPS_WindDir_IsbL-0200_RLatLon0.03_PT038H.grib2 2026-05-02 06:19 1.1M
20260502T00Z_MSC_CAPS_WindDir_IsbL-0225_RLatLon0.03_PT038H.grib2 2026-05-02 06:19 1.1M
20260502T00Z_MSC_CAPS_WindDir_IsbL-0250_RLatLon0.03_PT038H.grib2 2026-05-02 06:19 1.1M
20260502T00Z_MSC_CAPS_WindDir_IsbL-0275_RLatLon0.03_PT038H.grib2 2026-05-02 06:19 1.1M
20260502T00Z_MSC_CAPS_WindDir_IsbL-0300_RLatLon0.03_PT038H.grib2 2026-05-02 06:19 1.1M
20260502T00Z_MSC_CAPS_WindDir_IsbL-0350_RLatLon0.03_PT038H.grib2 2026-05-02 06:19 1.1M
20260502T00Z_MSC_CAPS_WindDir_IsbL-0400_RLatLon0.03_PT038H.grib2 2026-05-02 06:19 1.1M
20260502T00Z_MSC_CAPS_WindDir_IsbL-0450_RLatLon0.03_PT038H.grib2 2026-05-02 06:19 1.2M
20260502T00Z_MSC_CAPS_WindDir_IsbL-0500_RLatLon0.03_PT038H.grib2 2026-05-02 06:19 1.3M
20260502T00Z_MSC_CAPS_WindDir_IsbL-0550_RLatLon0.03_PT038H.grib2 2026-05-02 06:19 1.2M
20260502T00Z_MSC_CAPS_WindDir_IsbL-0600_RLatLon0.03_PT038H.grib2 2026-05-02 06:19 1.3M
20260502T00Z_MSC_CAPS_WindDir_IsbL-0650_RLatLon0.03_PT038H.grib2 2026-05-02 06:19 1.3M
20260502T00Z_MSC_CAPS_WindDir_IsbL-0700_RLatLon0.03_PT038H.grib2 2026-05-02 06:19 1.4M
20260502T00Z_MSC_CAPS_WindDir_IsbL-0750_RLatLon0.03_PT038H.grib2 2026-05-02 06:19 1.5M
20260502T00Z_MSC_CAPS_WindDir_IsbL-0800_RLatLon0.03_PT038H.grib2 2026-05-02 06:19 1.6M
20260502T00Z_MSC_CAPS_WindDir_IsbL-0850_RLatLon0.03_PT038H.grib2 2026-05-02 06:19 1.7M
20260502T00Z_MSC_CAPS_WindDir_IsbL-0875_RLatLon0.03_PT038H.grib2 2026-05-02 06:19 1.8M
20260502T00Z_MSC_CAPS_WindDir_IsbL-0900_RLatLon0.03_PT038H.grib2 2026-05-02 06:19 1.9M
20260502T00Z_MSC_CAPS_WindDir_IsbL-0925_RLatLon0.03_PT038H.grib2 2026-05-02 06:19 1.9M
20260502T00Z_MSC_CAPS_WindDir_IsbL-0950_RLatLon0.03_PT038H.grib2 2026-05-02 06:19 2.0M
20260502T00Z_MSC_CAPS_WindDir_IsbL-0970_RLatLon0.03_PT038H.grib2 2026-05-02 06:19 2.1M
20260502T00Z_MSC_CAPS_WindDir_IsbL-0985_RLatLon0.03_PT038H.grib2 2026-05-02 06:19 2.1M
20260502T00Z_MSC_CAPS_WindDir_IsbL-1000_RLatLon0.03_PT038H.grib2 2026-05-02 06:19 2.2M
20260502T00Z_MSC_CAPS_WindDir_IsbL-1015_RLatLon0.03_PT038H.grib2 2026-05-02 06:19 2.3M
20260502T00Z_MSC_CAPS_WindGust-Max_AGL-10m_RLatLon0.03_PT038H.grib2 2026-05-02 06:19 2.5M
20260502T00Z_MSC_CAPS_WindGust-Min_AGL-10m_RLatLon0.03_PT038H.grib2 2026-05-02 06:19 2.4M
20260502T00Z_MSC_CAPS_WindGust_AGL-10m_RLatLon0.03_PT038H.grib2 2026-05-02 06:19 2.5M
20260502T00Z_MSC_CAPS_WindSpeed_AGL-10m_RLatLon0.03_PT038H.grib2 2026-05-02 06:19 2.1M
20260502T00Z_MSC_CAPS_WindSpeed_AGL-120m_RLatLon0.03_PT038H.grib2 2026-05-02 06:19 1.1M
20260502T00Z_MSC_CAPS_WindSpeed_AGL-40m_RLatLon0.03_PT038H.grib2 2026-05-02 06:19 1.2M
20260502T00Z_MSC_CAPS_WindSpeed_AGL-80m_RLatLon0.03_PT038H.grib2 2026-05-02 06:19 1.2M
20260502T00Z_MSC_CAPS_WindSpeed_IsbL-0050_RLatLon0.03_PT038H.grib2 2026-05-02 06:19 932K
20260502T00Z_MSC_CAPS_WindSpeed_IsbL-0100_RLatLon0.03_PT038H.grib2 2026-05-02 06:19 1.0M
20260502T00Z_MSC_CAPS_WindSpeed_IsbL-0150_RLatLon0.03_PT038H.grib2 2026-05-02 06:19 1.1M
20260502T00Z_MSC_CAPS_WindSpeed_IsbL-0175_RLatLon0.03_PT038H.grib2 2026-05-02 06:19 1.2M
20260502T00Z_MSC_CAPS_WindSpeed_IsbL-0200_RLatLon0.03_PT038H.grib2 2026-05-02 06:19 938K
20260502T00Z_MSC_CAPS_WindSpeed_IsbL-0225_RLatLon0.03_PT038H.grib2 2026-05-02 06:19 954K
20260502T00Z_MSC_CAPS_WindSpeed_IsbL-0250_RLatLon0.03_PT038H.grib2 2026-05-02 06:19 969K
20260502T00Z_MSC_CAPS_WindSpeed_IsbL-0275_RLatLon0.03_PT038H.grib2 2026-05-02 06:19 1.0M
20260502T00Z_MSC_CAPS_WindSpeed_IsbL-0300_RLatLon0.03_PT038H.grib2 2026-05-02 06:19 1.0M
20260502T00Z_MSC_CAPS_WindSpeed_IsbL-0350_RLatLon0.03_PT038H.grib2 2026-05-02 06:19 1.0M
20260502T00Z_MSC_CAPS_WindSpeed_IsbL-0400_RLatLon0.03_PT038H.grib2 2026-05-02 06:19 1.0M
20260502T00Z_MSC_CAPS_WindSpeed_IsbL-0450_RLatLon0.03_PT038H.grib2 2026-05-02 06:19 1.3M
20260502T00Z_MSC_CAPS_WindSpeed_IsbL-0500_RLatLon0.03_PT038H.grib2 2026-05-02 06:19 1.4M
20260502T00Z_MSC_CAPS_WindSpeed_IsbL-0550_RLatLon0.03_PT038H.grib2 2026-05-02 06:19 1.4M
20260502T00Z_MSC_CAPS_WindSpeed_IsbL-0600_RLatLon0.03_PT038H.grib2 2026-05-02 06:19 1.4M
20260502T00Z_MSC_CAPS_WindSpeed_IsbL-0650_RLatLon0.03_PT038H.grib2 2026-05-02 06:19 1.4M
20260502T00Z_MSC_CAPS_WindSpeed_IsbL-0700_RLatLon0.03_PT038H.grib2 2026-05-02 06:19 1.5M
20260502T00Z_MSC_CAPS_WindSpeed_IsbL-0750_RLatLon0.03_PT038H.grib2 2026-05-02 06:19 1.5M
20260502T00Z_MSC_CAPS_WindSpeed_IsbL-0800_RLatLon0.03_PT038H.grib2 2026-05-02 06:19 1.6M
20260502T00Z_MSC_CAPS_WindSpeed_IsbL-0850_RLatLon0.03_PT038H.grib2 2026-05-02 06:19 1.7M
20260502T00Z_MSC_CAPS_WindSpeed_IsbL-0875_RLatLon0.03_PT038H.grib2 2026-05-02 06:19 1.7M
20260502T00Z_MSC_CAPS_WindSpeed_IsbL-0900_RLatLon0.03_PT038H.grib2 2026-05-02 06:19 1.8M
20260502T00Z_MSC_CAPS_WindSpeed_IsbL-0925_RLatLon0.03_PT038H.grib2 2026-05-02 06:19 1.8M
20260502T00Z_MSC_CAPS_WindSpeed_IsbL-0950_RLatLon0.03_PT038H.grib2 2026-05-02 06:19 1.9M
20260502T00Z_MSC_CAPS_WindSpeed_IsbL-0970_RLatLon0.03_PT038H.grib2 2026-05-02 06:19 2.0M
20260502T00Z_MSC_CAPS_WindSpeed_IsbL-0985_RLatLon0.03_PT038H.grib2 2026-05-02 06:19 2.1M
20260502T00Z_MSC_CAPS_WindSpeed_IsbL-1000_RLatLon0.03_PT038H.grib2 2026-05-02 06:19 2.1M
20260502T00Z_MSC_CAPS_WindSpeed_IsbL-1015_RLatLon0.03_PT038H.grib2 2026-05-02 06:19 2.1M
20260502T00Z_MSC_CAPS_WindU_AGL-10m_RLatLon0.03_PT038H.grib2 2026-05-02 06:19 1.9M
20260502T00Z_MSC_CAPS_WindU_AGL-120m_RLatLon0.03_PT038H.grib2 2026-05-02 06:19 908K
20260502T00Z_MSC_CAPS_WindU_AGL-40m_RLatLon0.03_PT038H.grib2 2026-05-02 06:19 1.2M
20260502T00Z_MSC_CAPS_WindU_AGL-80m_RLatLon0.03_PT038H.grib2 2026-05-02 06:19 1.2M
20260502T00Z_MSC_CAPS_WindU_IsbL-0050_RLatLon0.03_PT038H.grib2 2026-05-02 06:19 941K
20260502T00Z_MSC_CAPS_WindU_IsbL-0100_RLatLon0.03_PT038H.grib2 2026-05-02 06:19 1.0M
20260502T00Z_MSC_CAPS_WindU_IsbL-0150_RLatLon0.03_PT038H.grib2 2026-05-02 06:19 715K
20260502T00Z_MSC_CAPS_WindU_IsbL-0175_RLatLon0.03_PT038H.grib2 2026-05-02 06:19 850K
20260502T00Z_MSC_CAPS_WindU_IsbL-0200_RLatLon0.03_PT038H.grib2 2026-05-02 06:19 868K
20260502T00Z_MSC_CAPS_WindU_IsbL-0225_RLatLon0.03_PT038H.grib2 2026-05-02 06:19 888K
20260502T00Z_MSC_CAPS_WindU_IsbL-0250_RLatLon0.03_PT038H.grib2 2026-05-02 06:19 910K
20260502T00Z_MSC_CAPS_WindU_IsbL-0275_RLatLon0.03_PT038H.grib2 2026-05-02 06:19 915K
20260502T00Z_MSC_CAPS_WindU_IsbL-0300_RLatLon0.03_PT038H.grib2 2026-05-02 06:19 714K
20260502T00Z_MSC_CAPS_WindU_IsbL-0350_RLatLon0.03_PT038H.grib2 2026-05-02 06:19 725K
20260502T00Z_MSC_CAPS_WindU_IsbL-0400_RLatLon0.03_PT038H.grib2 2026-05-02 06:19 946K
20260502T00Z_MSC_CAPS_WindU_IsbL-0450_RLatLon0.03_PT038H.grib2 2026-05-02 06:19 968K
20260502T00Z_MSC_CAPS_WindU_IsbL-0500_RLatLon0.03_PT038H.grib2 2026-05-02 06:19 1.0M
20260502T00Z_MSC_CAPS_WindU_IsbL-0550_RLatLon0.03_PT038H.grib2 2026-05-02 06:19 928K
20260502T00Z_MSC_CAPS_WindU_IsbL-0600_RLatLon0.03_PT038H.grib2 2026-05-02 06:19 958K
20260502T00Z_MSC_CAPS_WindU_IsbL-0650_RLatLon0.03_PT038H.grib2 2026-05-02 06:19 1.0M
20260502T00Z_MSC_CAPS_WindU_IsbL-0700_RLatLon0.03_PT038H.grib2 2026-05-02 06:19 1.3M
20260502T00Z_MSC_CAPS_WindU_IsbL-0750_RLatLon0.03_PT038H.grib2 2026-05-02 06:19 1.4M
20260502T00Z_MSC_CAPS_WindU_IsbL-0800_RLatLon0.03_PT038H.grib2 2026-05-02 06:19 1.4M
20260502T00Z_MSC_CAPS_WindU_IsbL-0850_RLatLon0.03_PT038H.grib2 2026-05-02 06:19 1.2M
20260502T00Z_MSC_CAPS_WindU_IsbL-0875_RLatLon0.03_PT038H.grib2 2026-05-02 06:19 1.2M
20260502T00Z_MSC_CAPS_WindU_IsbL-0900_RLatLon0.03_PT038H.grib2 2026-05-02 06:19 1.3M
20260502T00Z_MSC_CAPS_WindU_IsbL-0925_RLatLon0.03_PT038H.grib2 2026-05-02 06:19 1.3M
20260502T00Z_MSC_CAPS_WindU_IsbL-0950_RLatLon0.03_PT038H.grib2 2026-05-02 06:19 1.4M
20260502T00Z_MSC_CAPS_WindU_IsbL-0970_RLatLon0.03_PT038H.grib2 2026-05-02 06:19 1.4M
20260502T00Z_MSC_CAPS_WindU_IsbL-0985_RLatLon0.03_PT038H.grib2 2026-05-02 06:19 1.5M
20260502T00Z_MSC_CAPS_WindU_IsbL-1000_RLatLon0.03_PT038H.grib2 2026-05-02 06:19 1.8M
20260502T00Z_MSC_CAPS_WindU_IsbL-1015_RLatLon0.03_PT038H.grib2 2026-05-02 06:19 1.9M
20260502T00Z_MSC_CAPS_WindV_AGL-10m_RLatLon0.03_PT038H.grib2 2026-05-02 06:19 1.9M
20260502T00Z_MSC_CAPS_WindV_AGL-120m_RLatLon0.03_PT038H.grib2 2026-05-02 06:19 902K
20260502T00Z_MSC_CAPS_WindV_AGL-40m_RLatLon0.03_PT038H.grib2 2026-05-02 06:19 1.2M
20260502T00Z_MSC_CAPS_WindV_AGL-80m_RLatLon0.03_PT038H.grib2 2026-05-02 06:19 1.2M
20260502T00Z_MSC_CAPS_WindV_IsbL-0050_RLatLon0.03_PT038H.grib2 2026-05-02 06:19 762K
20260502T00Z_MSC_CAPS_WindV_IsbL-0100_RLatLon0.03_PT038H.grib2 2026-05-02 06:19 899K
20260502T00Z_MSC_CAPS_WindV_IsbL-0150_RLatLon0.03_PT038H.grib2 2026-05-02 06:19 720K
20260502T00Z_MSC_CAPS_WindV_IsbL-0175_RLatLon0.03_PT038H.grib2 2026-05-02 06:19 853K
20260502T00Z_MSC_CAPS_WindV_IsbL-0200_RLatLon0.03_PT038H.grib2 2026-05-02 06:19 869K
20260502T00Z_MSC_CAPS_WindV_IsbL-0225_RLatLon0.03_PT038H.grib2 2026-05-02 06:19 679K
20260502T00Z_MSC_CAPS_WindV_IsbL-0250_RLatLon0.03_PT038H.grib2 2026-05-02 06:19 697K
20260502T00Z_MSC_CAPS_WindV_IsbL-0275_RLatLon0.03_PT038H.grib2 2026-05-02 06:19 707K
20260502T00Z_MSC_CAPS_WindV_IsbL-0300_RLatLon0.03_PT038H.grib2 2026-05-02 06:19 716K
20260502T00Z_MSC_CAPS_WindV_IsbL-0350_RLatLon0.03_PT038H.grib2 2026-05-02 06:19 724K
20260502T00Z_MSC_CAPS_WindV_IsbL-0400_RLatLon0.03_PT038H.grib2 2026-05-02 06:19 945K
20260502T00Z_MSC_CAPS_WindV_IsbL-0450_RLatLon0.03_PT038H.grib2 2026-05-02 06:19 968K
20260502T00Z_MSC_CAPS_WindV_IsbL-0500_RLatLon0.03_PT038H.grib2 2026-05-02 06:19 1.0M
20260502T00Z_MSC_CAPS_WindV_IsbL-0550_RLatLon0.03_PT038H.grib2 2026-05-02 06:19 929K
20260502T00Z_MSC_CAPS_WindV_IsbL-0600_RLatLon0.03_PT038H.grib2 2026-05-02 06:19 955K
20260502T00Z_MSC_CAPS_WindV_IsbL-0650_RLatLon0.03_PT038H.grib2 2026-05-02 06:19 1.2M
20260502T00Z_MSC_CAPS_WindV_IsbL-0700_RLatLon0.03_PT038H.grib2 2026-05-02 06:19 1.0M
20260502T00Z_MSC_CAPS_WindV_IsbL-0750_RLatLon0.03_PT038H.grib2 2026-05-02 06:19 1.1M
20260502T00Z_MSC_CAPS_WindV_IsbL-0800_RLatLon0.03_PT038H.grib2 2026-05-02 06:19 1.1M
20260502T00Z_MSC_CAPS_WindV_IsbL-0850_RLatLon0.03_PT038H.grib2 2026-05-02 06:19 1.2M
20260502T00Z_MSC_CAPS_WindV_IsbL-0875_RLatLon0.03_PT038H.grib2 2026-05-02 06:19 1.2M
20260502T00Z_MSC_CAPS_WindV_IsbL-0900_RLatLon0.03_PT038H.grib2 2026-05-02 06:19 1.3M
20260502T00Z_MSC_CAPS_WindV_IsbL-0925_RLatLon0.03_PT038H.grib2 2026-05-02 06:19 1.3M
20260502T00Z_MSC_CAPS_WindV_IsbL-0950_RLatLon0.03_PT038H.grib2 2026-05-02 06:19 1.3M
20260502T00Z_MSC_CAPS_WindV_IsbL-0970_RLatLon0.03_PT038H.grib2 2026-05-02 06:19 1.4M
20260502T00Z_MSC_CAPS_WindV_IsbL-0985_RLatLon0.03_PT038H.grib2 2026-05-02 06:19 1.4M
20260502T00Z_MSC_CAPS_WindV_IsbL-1000_RLatLon0.03_PT038H.grib2 2026-05-02 06:19 1.8M
20260502T00Z_MSC_CAPS_WindV_IsbL-1015_RLatLon0.03_PT038H.grib2 2026-05-02 06:19 1.8M